When you browse on this site, cookies collect data to enhance your experience and personalize the content and advertising you see.
Visit our Privacy Policy to learn more. By continuing to use the site, you agree to this use of cookies and data.
  • în România
  • Lista ţărilor
  • Pe 7 zile
  • Temperatura apei
  • Meteo pe hartă
  • Widget-uri
  • user-avatar
    Intrare

    Meteo pe oră la Cabimas

    Astăzi, 11 Decembrie, Miercuri

    Timp Temperatura Precipitaţii Vânt Presiune Umiditate
    00:00 +26°C° 0 mm 4 m/s 758 mmHg 75%
    01:00 +26°C° 0 mm 3 m/s 758 mmHg 77%
    02:00 +25°C° 0 mm 3 m/s 758 mmHg 78%
    03:00 +25°C° 0 mm 2 m/s 758 mmHg 79%
    04:00 +25°C° 0 mm 2 m/s 758 mmHg 80%
    05:00 +25°C° 0 mm 2 m/s 758 mmHg 79%
    06:00 +25°C° 0 mm 2 m/s 759 mmHg 78%
    07:00 +26°C° 0 mm 2 m/s 759 mmHg 77%
    08:00 +28°C° 0 mm 2 m/s 759 mmHg 69%
    09:00 +30°C° 0 mm 1 m/s 759 mmHg 62%
    10:00 +32°C° 0 mm 1 m/s 760 mmHg 55%
    11:00 +33°C° 0 mm 1 m/s 759 mmHg 52%
    12:00 +34°C° 0 mm 1 m/s 758 mmHg 50%
    13:00 +36°C° 0 mm 2 m/s 757 mmHg 48%
    14:00 +35°C° 0 mm 2 m/s 757 mmHg 51%
    15:00 +34°C° 0 mm 3 m/s 756 mmHg 54%
    16:00 +33°C° 0 mm 3 m/s 756 mmHg 57%
    17:00 +32°C° 0 mm 4 m/s 756 mmHg 61%
    18:00 +30°C° 0 mm 5 m/s 757 mmHg 66%
    19:00 +29°C° 0 mm 6 m/s 757 mmHg 71%
    20:00 +28°C° 0 mm 6 m/s 758 mmHg 73%
    21:00 +28°C° 0 mm 6 m/s 758 mmHg 75%
    22:00 +27°C° 0 mm 6 m/s 759 mmHg 77%
    23:00 +27°C° 0.1 mm 5 m/s 758 mmHg 78%

    Mâine, 12 Decembrie, Joi

    Timp Temperatura Precipitaţii Vânt Presiune Umiditate
    00:00 +26°C° 0.1 mm 4 m/s 758 mmHg 79%
    01:00 +26°C° 0.1 mm 4 m/s 758 mmHg 79%
    02:00 +25°C° 0 mm 3 m/s 758 mmHg 81%
    03:00 +25°C° 0 mm 3 m/s 757 mmHg 82%
    04:00 +25°C° 0 mm 3 m/s 757 mmHg 84%
    05:00 +25°C° 0 mm 3 m/s 758 mmHg 83%
    06:00 +26°C° 0 mm 3 m/s 758 mmHg 82%
    07:00 +26°C° 0 mm 3 m/s 758 mmHg 81%
    08:00 +28°C° 0 mm 2 m/s 758 mmHg 73%
    09:00 +30°C° 0 mm 2 m/s 758 mmHg 65%
    10:00 +32°C° 0 mm 1 m/s 759 mmHg 58%
    11:00 +32°C° 0 mm 1 m/s 758 mmHg 57%
    12:00 +34°C° 0 mm 2 m/s 757 mmHg 56%
    13:00 +34°C° 0 mm 2 m/s 756 mmHg 56%
    14:00 +32°C° 0.1 mm 2 m/s 756 mmHg 59%
    15:00 +31°C° 0.1 mm 3 m/s 755 mmHg 63%
    16:00 +32°C° 0.1 mm 4 m/s 755 mmHg 66%
    17:00 +29°C° 0.1 mm 4 m/s 755 mmHg 71%
    18:00 +28°C° 0.1 mm 5 m/s 756 mmHg 75%
    19:00 +27°C° 0.1 mm 5 m/s 756 mmHg 79%
    20:00 +27°C° 0.1 mm 5 m/s 757 mmHg 79%
    21:00 +27°C° 0.1 mm 5 m/s 757 mmHg 80%
    22:00 +26°C° 0.1 mm 5 m/s 758 mmHg 81%
    23:00 +26°C° 0 mm 5 m/s 758 mmHg 83%

    Poimâine, 13 Decembrie, Vineri

    Timp Temperatura Precipitaţii Vânt Presiune Umiditate
    00:00 +26°C° 0 mm 4 m/s 757 mmHg 85%
    01:00 +25°C° 0 mm 4 m/s 757 mmHg 87%
    02:00 +25°C° 0.1 mm 3 m/s 757 mmHg 86%
    03:00 +25°C° 0.1 mm 3 m/s 757 mmHg 86%
    04:00 +25°C° 0.1 mm 3 m/s 757 mmHg 85%
    05:00 +25°C° 0 mm 2 m/s 757 mmHg 83%
    06:00 +25°C° 0 mm 2 m/s 757 mmHg 82%
    07:00 +26°C° 0 mm 2 m/s 758 mmHg 80%
    08:00 +28°C° 0 mm 2 m/s 758 mmHg 72%
    09:00 +30°C° 0 mm 1 m/s 758 mmHg 64%
    10:00 +32°C° 0 mm 1 m/s 758 mmHg 56%
    11:00 +33°C° 0 mm 1 m/s 757 mmHg 55%
    12:00 +33°C° 0 mm 1 m/s 756 mmHg 54%
    13:00 +33°C° 0 mm 1 m/s 756 mmHg 53%
    14:00 +34°C° 0 mm 2 m/s 755 mmHg 55%
    15:00 +32°C° 0 mm 2 m/s 755 mmHg 58%
    16:00 +31°C° 0 mm 2 m/s 755 mmHg 61%
    17:00 +30°C° 0 mm 2 m/s 755 mmHg 65%
    18:00 +29°C° 0 mm 3 m/s 756 mmHg 70%
    19:00 +28°C° 0 mm 3 m/s 756 mmHg 74%
    20:00 +27°C° 0 mm 4 m/s 757 mmHg 76%
    21:00 +27°C° 0 mm 4 m/s 757 mmHg 78%
    22:00 +26°C° 0 mm 4 m/s 758 mmHg 81%
    23:00 +26°C° 0 mm 3 m/s 757 mmHg 82%

    14 Decembrie, Sâmbătă

    Timp Temperatura Precipitaţii Vânt Presiune Umiditate
    00:00 +25°C° 0 mm 3 m/s 757 mmHg 84%
    01:00 +25°C° 0 mm 2 m/s 757 mmHg 86%
    02:00 +25°C° 0 mm 2 m/s 757 mmHg 86%
    03:00 +25°C° 0 mm 1 m/s 756 mmHg 87%
    04:00 +25°C° 0 mm 1 m/s 756 mmHg 88%
    05:00 +25°C° 0 mm 1 m/s 757 mmHg 86%
    06:00 +26°C° 0 mm 1 m/s 757 mmHg 84%
    07:00 +26°C° 0 mm 1 m/s 758 mmHg 82%
    08:00 +28°C° 0 mm 1 m/s 758 mmHg 75%
    09:00 +30°C° 0 mm 2 m/s 758 mmHg 68%
    10:00 +32°C° 0 mm 2 m/s 758 mmHg 61%
    11:00 +32°C° 0 mm 2 m/s 757 mmHg 60%
    12:00 +34°C° 0 mm 2 m/s 757 mmHg 59%
    13:00 +34°C° 0 mm 2 m/s 756 mmHg 57%
    14:00 +32°C° 0.2 mm 2 m/s 755 mmHg 60%
    15:00 +32°C° 0.2 mm 1 m/s 755 mmHg 63%
    16:00 +31°C° 0.2 mm 1 m/s 755 mmHg 66%
    17:00 +30°C° 0.2 mm 1 m/s 755 mmHg 72%
    18:00 +28°C° 0.2 mm 2 m/s 756 mmHg 78%
    19:00 +27°C° 0.2 mm 3 m/s 757 mmHg 84%
    20:00 +27°C° 0.3 mm 3 m/s 757 mmHg 85%
    21:00 +26°C° 0.3 mm 3 m/s 758 mmHg 87%
    22:00 +26°C° 0.3 mm 3 m/s 758 mmHg 88%
    23:00 +26°C° 0.2 mm 3 m/s 758 mmHg 89%

    15 Decembrie, Duminică

    Timp Temperatura Precipitaţii Vânt Presiune Umiditate
    00:00 +25°C° 0.2 mm 3 m/s 758 mmHg 90%
    01:00 +25°C° 0.2 mm 3 m/s 757 mmHg 91%
    02:00 +25°C° 0.4 mm 2 m/s 757 mmHg 91%
    03:00 +25°C° 0.4 mm 2 m/s 757 mmHg 91%
    04:00 +25°C° 0.4 mm 2 m/s 757 mmHg 92%
    05:00 +25°C° 0.3 mm 1 m/s 757 mmHg 90%
    06:00 +26°C° 0.3 mm 1 m/s 758 mmHg 89%
    07:00 +26°C° 0.3 mm 1 m/s 759 mmHg 88%
    08:00 +28°C° 0.1 mm 1 m/s 759 mmHg 79%
    09:00 +30°C° 0.1 mm 1 m/s 759 mmHg 70%
    10:00 +32°C° 0.1 mm 1 m/s 759 mmHg 61%
    11:00 +33°C° 0.2 mm 1 m/s 758 mmHg 61%
    12:00 +33°C° 0.2 mm 1 m/s 757 mmHg 60%
    13:00 +33°C° 0.2 mm 1 m/s 756 mmHg 60%
    14:00 +32°C° 0.2 mm 1 m/s 756 mmHg 63%
    15:00 +32°C° 0.2 mm 1 m/s 756 mmHg 66%
    16:00 +31°C° 0.2 mm 2 m/s 755 mmHg 69%
    17:00 +30°C° 0.3 mm 2 m/s 756 mmHg 74%
    18:00 +29°C° 0.3 mm 3 m/s 756 mmHg 78%
    19:00 +27°C° 0.3 mm 4 m/s 757 mmHg 83%
    20:00 +27°C° 0 mm 4 m/s 757 mmHg 85%
    21:00 +27°C° 0 mm 4 m/s 758 mmHg 87%
    22:00 +26°C° 0 mm 4 m/s 758 mmHg 88%
    23:00 +26°C° 0.1 mm 3 m/s 758 mmHg 89%

    16 Decembrie, Luni

    Timp Temperatura Precipitaţii Vânt Presiune Umiditate
    00:00 +26°C° 0.1 mm 3 m/s 758 mmHg 90%
    01:00 +25°C° 0.1 mm 2 m/s 757 mmHg 91%
    02:00 +25°C° 0.2 mm 2 m/s 757 mmHg 91%
    03:00 +25°C° 0.2 mm 2 m/s 757 mmHg 91%
    04:00 +25°C° 0.2 mm 2 m/s 757 mmHg 91%
    05:00 +25°C° 0 mm 2 m/s 757 mmHg 90%
    06:00 +26°C° 0 mm 2 m/s 758 mmHg 88%
    07:00 +26°C° 0 mm 2 m/s 758 mmHg 86%
    08:00 +28°C° 0.1 mm 2 m/s 758 mmHg 78%
    09:00 +30°C° 0.1 mm 2 m/s 758 mmHg 70%
    10:00 +32°C° 0.1 mm 2 m/s 759 mmHg 61%
    11:00 +34°C° 0 mm 2 m/s 758 mmHg 59%
    12:00 +35°C° 0 mm 2 m/s 757 mmHg 57%
    13:00 +35°C° 0 mm 2 m/s 756 mmHg 54%
    14:00 +34°C° 0.1 mm 2 m/s 756 mmHg 59%
    15:00 +32°C° 0.1 mm 2 m/s 755 mmHg 64%
    16:00 +31°C° 0.1 mm 2 m/s 755 mmHg 69%
    17:00 +30°C° 0.1 mm 3 m/s 755 mmHg 72%
    18:00 +29°C° 0.1 mm 4 m/s 756 mmHg 75%
    19:00 +28°C° 0.1 mm 5 m/s 756 mmHg 78%
    20:00 +28°C° 0.1 mm 5 m/s 757 mmHg 80%
    21:00 +27°C° 0.1 mm 4 m/s 757 mmHg 82%
    22:00 +27°C° 0.1 mm 4 m/s 758 mmHg 84%
    23:00 +27°C° 0.2 mm 3 m/s 757 mmHg 85%
    Arată mai mult